Location: Augustenthal
(51.7167°N, 10.2833°E)
Time: 17:42:10
(UTC+00:00)

CZ-2C R/B - Pass Details

Date: 18 May 2021
Orbit: 640 x 703 km, 98.3° (Epoch: 21 June)

Event Time Altitude Azimuth Distance (km) Brightness Sun altitude
Rises 20:08:50 0° 16° (NNE) 2,990 7.5 -7.8°
Reaches altitude 10° 20:11:04 10° 20° (NNE) 2,082 6.6 -8.0°
Maximum altitude 20:15:35 66° 102° (ESE) 732 3.7 -8.5°
Drops below altitude 10° 20:20:10 10° 186° (S) 2,104 5.9 -9.0°
Sets 20:22:25 0° 189° (S) 3,024 6.7 -9.2°
